Time,TemperatureF,DewpointF,PressureIn,WindDirection,WindDirectionDegrees,WindSpeedMPH,WindSpeedGustMPH,Humidity,HourlyPrecipIn,Conditions,Clouds,dailyrainin,SoftwareType,DateUTC
2013-03-12 00:00:00,48.2,45.1,29.72,SSE,158,20.3,20.7,89,0.00,CLR,,0.01,WeatherDisplay:10.37,2013-03-12 04:00:00,
2013-03-12 00:06:00,48.2,45.1,29.71,SSW,202,19.4,25.3,89,0.00,RA,,0.00,WeatherDisplay:10.37,2013-03-12 04:06:00,
2013-03-12 00:09:00,48.4,45.3,29.72,South,180,17.8,19.6,89,0.00,RA,,0.00,WeatherDisplay:10.37,2013-03-12 04:09:00,
2013-03-12 00:10:00,48.4,45.3,29.71,SSE,158,15.1,21.9,89,0.00,RA,,0.00,WeatherDisplay:10.37,2013-03-12 04:10:00,
2013-03-12 00:14:00,48.2,45.1,29.72,SSE,158,21.2,21.2,89,0.00,CLR,,0.00,WeatherDisplay:10.37,2013-03-12 04:14:00,
2013-03-12 00:20:00,48.2,45.1,29.71,SE,135,15.7,18.4,89,0.00,CLR,,0.00,WeatherDisplay:10.37,2013-03-12 04:20:00,
2013-03-12 00:26:00,48.2,45.1,29.71,SE,135,14.2,14.2,89,0.00,CLR,,0.00,WeatherDisplay:10.37,2013-03-12 04:26:00,
2013-03-12 00:31:00,48.0,44.9,29.71,SSE,158,11.7,15.0,89,0.00,CLR,,0.00,WeatherDisplay:10.37,2013-03-12 04:31:00,
2013-03-12 00:37:00,48.0,45.2,29.72,SE,135,13.6,13.6,90,0.00,CLR,,0.00,WeatherDisplay:10.37,2013-03-12 04:37:00,
2013-03-12 00:42:00,48.0,45.2,29.72,SSE,158,9.9,13.8,90,0.00,CLR,,0.00,WeatherDisplay:10.37,2013-03-12 04:42:00,
2013-03-12 00:47:00,48.0,45.2,29.71,SW,225,14.2,14.2,90,0.00,CLR,,0.00,WeatherDisplay:10.37,2013-03-12 04:47:00,
2013-03-12 00:52:00,48.0,45.2,29.71,SE,135,11.4,11.5,90,0.00,CLR,,0.00,WeatherDisplay:10.37,2013-03-12 04:52:00,
2013-03-12 00:57:00,47.8,45.0,29.71,SSE,158,10.8,13.8,90,0.00,CLR,,0.00,WeatherDisplay:10.37,2013-03-12 04:57:00,
2013-03-12 01:02:00,47.8,45.0,29.71,SSE,158,9.0,9.2,90,0.01,RA,,0.01,WeatherDisplay:10.37,2013-03-12 05:02:00,
2013-03-12 01:07:00,47.8,45.0,29.72,SSE,158,4.3,8.1,90,0.01,RA,,0.01,WeatherDisplay:10.37,2013-03-12 05:07:00,
2013-03-12 01:12:00,47.8,45.0,29.72,SE,135,4.3,8.1,90,0.02,RA,,0.02,WeatherDisplay:10.37,2013-03-12 05:12:00,
2013-03-12 01:17:00,47.8,44.8,29.72,SSE,158,3.4,8.1,89,0.03,RA,,0.03,WeatherDisplay:10.37,2013-03-12 05:17:00,
2013-03-12 01:22:00,47.8,45.0,29.71,SE,135,6.7,10.4,90,0.03,RA,,0.03,WeatherDisplay:10.37,2013-03-12 05:22:00,
2013-03-12 01:27:00,47.7,44.9,29.71,SSE,158,9.0,9.2,90,0.03,CLR,,0.03,WeatherDisplay:10.37,2013-03-12 05:27:00,
2013-03-12 01:32:00,47.7,44.9,29.71,SE,135,6.4,6.9,90,0.04,RA,,0.04,WeatherDisplay:10.37,2013-03-12 05:32:00,
2013-03-12 01:37:00,47.7,44.9,29.71,SSE,158,10.8,15.0,90,0.04,RA,,0.04,WeatherDisplay:10.37,2013-03-12 05:37:00,
2013-03-12 01:42:00,47.7,45.2,29.71,SSE,158,9.0,9.2,91,0.05,RA,,0.05,WeatherDisplay:10.37,2013-03-12 05:42:00,
2013-03-12 01:47:00,47.8,45.3,29.71,SSE,158,9.9,11.5,91,0.05,RA,,0.05,WeatherDisplay:10.37,2013-03-12 05:47:00,
2013-03-12 01:52:00,47.8,45.3,29.71,SSE,158,16.0,16.1,91,0.05,,,0.05,WeatherDisplay:10.37,2013-03-12 05:52:00,
2013-03-12 01:57:00,47.8,45.3,29.71,SSE,158,12.6,12.7,91,0.06,RA,,0.06,WeatherDisplay:10.37,2013-03-12 05:57:00,
2013-03-12 02:02:00,47.8,45.3,29.71,South,180,7.8,11.5,91,0.06,RA,,0.07,WeatherDisplay:10.37,2013-03-12 06:02:00,
2013-03-12 02:07:00,47.8,45.3,29.71,SE,135,9.0,10.4,91,0.06,RA,,0.07,WeatherDisplay:10.37,2013-03-12 06:07:00,
2013-03-12 02:12:00,47.8,45.3,29.71,SE,135,4.9,5.8,91,0.06,RA,,0.08,WeatherDisplay:10.37,2013-03-12 06:12:00,
2013-03-12 02:17:00,47.8,45.3,29.71,SSE,158,5.8,9.2,91,0.06,RA,,0.09,WeatherDisplay:10.37,2013-03-12 06:17:00,
2013-03-12 02:22:00,47.8,45.3,29.71,WSW,248,5.2,5.2,91,0.07,RA,,0.10,WeatherDisplay:10.37,2013-03-12 06:22:00,
2013-03-12 02:27:00,47.8,45.3,29.71,South,180,4.6,5.8,91,0.07,RA,,0.10,WeatherDisplay:10.37,2013-03-12 06:27:00,
2013-03-12 02:32:00,47.8,45.3,29.71,SSE,158,5.2,6.9,91,0.07,RA,,0.12,WeatherDisplay:10.37,2013-03-12 06:32:00,
2013-03-12 02:37:00,47.8,45.3,29.71,SE,135,2.8,2.8,91,0.09,RA,,0.13,WeatherDisplay:10.37,2013-03-12 06:37:00,
2013-03-12 02:42:00,47.8,45.0,29.71,South,180,3.1,3.5,90,0.09,RA,,0.14,WeatherDisplay:10.37,2013-03-12 06:42:00,
2013-03-12 02:47:00,47.8,45.0,29.70,SSE,158,5.2,5.8,90,0.11,RA,,0.16,WeatherDisplay:10.37,2013-03-12 06:47:00,
2013-03-12 02:52:00,47.8,45.3,29.70,SSE,158,6.7,8.1,91,0.12,RA,,0.17,WeatherDisplay:10.37,2013-03-12 06:52:00,
2013-03-12 02:57:00,47.8,45.3,29.69,SSE,158,7.0,7.0,91,0.11,RA,,0.17,WeatherDisplay:10.37,2013-03-12 06:57:00,
2013-03-12 03:02:00,47.7,45.2,29.69,SSE,158,4.0,4.6,91,0.10,CLR,,0.17,WeatherDisplay:10.37,2013-03-12 07:02:00,
2013-03-12 03:07:00,47.7,45.2,29.69,SE,135,5.5,5.5,91,0.10,CLR,,0.17,WeatherDisplay:10.37,2013-03-12 07:07:00,
2013-03-12 03:12:00,47.7,45.2,29.69,SSE,158,1.2,5.8,91,0.09,CLR,,0.17,WeatherDisplay:10.37,2013-03-12 07:12:00,
2013-03-12 03:17:00,47.7,45.2,29.69,WSW,248,1.5,1.5,91,0.08,CLR,,0.17,WeatherDisplay:10.37,2013-03-12 07:17:00,
2013-03-12 03:22:00,47.5,45.0,29.69,NW,315,3.4,3.5,91,0.08,RA,,0.18,WeatherDisplay:10.37,2013-03-12 07:22:00,
2013-03-12 03:27:00,47.3,45.1,29.70,WNW,292,2.5,2.5,92,0.08,RA,,0.19,WeatherDisplay:10.37,2013-03-12 07:27:00,
2013-03-12 03:32:00,47.1,44.9,29.71,WSW,248,2.8,5.8,92,0.08,RA,,0.19,WeatherDisplay:10.37,2013-03-12 07:32:00,
2013-03-12 03:37:00,47.1,45.2,29.71,West,270,1.5,4.6,93,0.07,RA,,0.20,WeatherDisplay:10.37,2013-03-12 07:37:00,
2013-03-12 03:42:00,46.8,44.8,29.71,NW,315,7.0,11.5,93,0.07,RA,,0.22,WeatherDisplay:10.37,2013-03-12 07:42:00,
2013-03-12 03:47:00,45.9,44.0,29.72,West,270,10.8,10.8,93,0.06,RA,,0.22,WeatherDisplay:10.37,2013-03-12 07:47:00,
2013-03-12 03:52:00,45.0,42.5,29.72,West,270,4.3,6.9,91,0.06,RA,,0.23,WeatherDisplay:10.37,2013-03-12 07:52:00,
2013-03-12 03:57:00,44.2,42.1,29.72,West,270,2.1,2.3,92,0.06,RA,,0.23,WeatherDisplay:10.37,2013-03-12 07:57:00,
2013-03-12 04:02:00,43.7,41.5,29.72,West,270,4.3,4.6,92,0.06,,,0.24,WeatherDisplay:10.37,2013-03-12 08:02:00,
2013-03-12 04:07:00,43.3,41.2,29.72,WSW,248,2.8,5.8,92,0.07,RA,,0.24,WeatherDisplay:10.37,2013-03-12 08:07:00,
2013-03-12 04:12:00,43.0,40.8,29.71,NW,315,0.9,2.3,92,0.07,RA,,0.24,WeatherDisplay:10.37,2013-03-12 08:12:00,
2013-03-12 04:17:00,42.8,40.6,29.71,West,270,1.8,2.3,92,0.07,CLR,,0.24,WeatherDisplay:10.37,2013-03-12 08:17:00,
2013-03-12 04:22:00,42.4,40.3,29.72,West,270,3.1,5.8,92,0.06,CLR,,0.24,WeatherDisplay:10.37,2013-03-12 08:22:00,
2013-03-12 04:27:00,42.3,40.1,29.72,WSW,248,2.4,2.4,92,0.06,CLR,,0.24,WeatherDisplay:10.37,2013-03-12 08:27:00,
2013-03-12 04:32:00,42.1,39.9,29.73,WSW,248,2.4,2.4,92,0.05,CLR,,0.24,WeatherDisplay:10.37,2013-03-12 08:32:00,
2013-03-12 04:37:00,41.9,39.7,29.73,West,270,2.4,2.4,92,0.04,CLR,,0.24,WeatherDisplay:10.37,2013-03-12 08:37:00,
2013-03-12 04:42:00,41.9,40.0,29.73,WSW,248,1.8,2.3,93,0.03,CLR,,0.24,WeatherDisplay:10.37,2013-03-12 08:42:00,
2013-03-12 04:47:00,41.7,39.8,29.74,WSW,248,3.1,3.5,93,0.02,CLR,,0.24,WeatherDisplay:10.37,2013-03-12 08:47:00,
2013-03-12 04:52:00,41.7,39.8,29.73,WNW,292,1.5,2.3,93,0.02,RA,,0.25,WeatherDisplay:10.37,2013-03-12 08:52:00,
2013-03-12 04:57:00,41.7,39.8,29.73,West,270,1.5,1.5,93,0.02,RA,,0.25,WeatherDisplay:10.37,2013-03-12 08:57:00,
2013-03-12 05:02:00,41.5,39.7,29.73,NW,315,1.5,1.5,93,0.02,,,0.25,WeatherDisplay:10.37,2013-03-12 09:02:00,
2013-03-12 05:07:00,41.4,39.5,29.72,West,270,1.5,1.5,93,0.01,CLR,,0.25,WeatherDisplay:10.37,2013-03-12 09:07:00,
2013-03-12 05:12:00,41.4,39.5,29.73,WNW,292,1.8,2.3,93,0.01,CLR,,0.25,WeatherDisplay:10.37,2013-03-12 09:12:00,
2013-03-12 05:17:00,41.4,39.5,29.72,NW,315,0.3,2.3,93,0.03,RA,,0.28,WeatherDisplay:10.37,2013-03-12 09:17:00,
2013-03-12 05:22:00,41.4,39.5,29.73,West,270,1.8,1.8,93,0.04,RA,,0.29,WeatherDisplay:10.37,2013-03-12 09:22:00,
2013-03-12 05:27:00,41.4,39.5,29.73,WSW,248,1.5,2.3,93,0.05,RA,,0.29,WeatherDisplay:10.37,2013-03-12 09:27:00,
2013-03-12 05:32:00,41.4,39.5,29.73,WSW,248,1.8,2.3,93,0.05,RA,,0.29,WeatherDisplay:10.37,2013-03-12 09:32:00,
2013-03-12 05:37:00,41.2,39.3,29.74,West,270,2.8,2.8,93,0.05,CLR,,0.29,WeatherDisplay:10.37,2013-03-12 09:37:00,
2013-03-12 05:42:00,41.2,39.3,29.74,West,270,2.4,2.4,93,0.06,RA,,0.30,WeatherDisplay:10.37,2013-03-12 09:42:00,
2013-03-12 05:47:00,41.2,39.3,29.73,NW,315,3.1,3.5,93,0.07,RA,,0.31,WeatherDisplay:10.37,2013-03-12 09:47:00,
2013-03-12 05:52:00,41.0,39.1,29.74,West,270,3.1,3.5,93,0.06,RA,,0.31,WeatherDisplay:10.37,2013-03-12 09:52:00,
2013-03-12 05:57:00,41.0,39.1,29.74,West,270,0.0,1.1,93,0.06,CLR,,0.31,WeatherDisplay:10.37,2013-03-12 09:57:00,
2013-03-12 06:02:00,40.8,39.0,29.74,West,270,0.0,0.0,93,0.06,CLR,,0.31,WeatherDisplay:10.37,2013-03-12 10:02:00,
2013-03-12 06:07:00,40.8,39.0,29.74,West,270,0.9,1.1,93,0.06,CLR,,0.31,WeatherDisplay:10.37,2013-03-12 10:07:00,
2013-03-12 06:12:00,40.8,39.0,29.74,WNW,292,0.6,1.1,93,0.07,RA,,0.32,WeatherDisplay:10.37,2013-03-12 10:12:00,
2013-03-12 06:18:00,40.6,38.8,29.74,WSW,248,2.5,2.5,93,0.05,RA,,0.32,WeatherDisplay:10.37,2013-03-12 10:18:00,
2013-03-12 06:23:00,40.6,38.8,29.74,NW,315,0.9,1.1,93,0.03,,,0.32,WeatherDisplay:10.37,2013-03-12 10:23:00,
2013-03-12 06:28:00,40.6,38.8,29.74,WNW,292,2.5,2.5,93,0.03,CLR,,0.32,WeatherDisplay:10.37,2013-03-12 10:28:00,
2013-03-12 06:33:00,40.6,38.8,29.74,West,270,4.3,4.3,93,0.03,CLR,,0.32,WeatherDisplay:10.37,2013-03-12 10:33:00,
2013-03-12 06:38:00,40.6,38.8,29.75,WSW,248,1.5,2.3,93,0.03,CLR,,0.32,WeatherDisplay:10.37,2013-03-12 10:38:00,
2013-03-12 06:44:00,40.6,38.8,29.75,WNW,292,1.5,1.5,93,0.01,CLR,,0.32,WeatherDisplay:10.37,2013-03-12 10:44:00,
2013-03-12 06:49:00,40.6,38.8,29.74,WNW,292,1.5,1.5,93,0.01,CLR,,0.32,WeatherDisplay:10.37,2013-03-12 10:49:00,
2013-03-12 06:54:00,40.5,38.6,29.74,West,270,0.6,3.5,93,0.01,CLR,,0.32,WeatherDisplay:10.37,2013-03-12 10:54:00,
2013-03-12 06:59:00,40.5,38.6,29.74,WNW,292,0.6,1.1,93,0.01,CLR,,0.32,WeatherDisplay:10.37,2013-03-12 10:59:00,
2013-03-12 07:04:00,40.5,38.9,29.74,WSW,248,3.1,3.1,94,0.01,CLR,,0.32,WeatherDisplay:10.37,2013-03-12 11:04:00,
2013-03-12 07:09:00,40.3,38.7,29.74,NW,315,0.0,0.0,94,0.02,RA,,0.33,WeatherDisplay:10.37,2013-03-12 11:09:00,
2013-03-12 07:14:00,40.5,38.9,29.74,NW,315,0.9,0.9,94,0.01,RA,,0.33,WeatherDisplay:10.37,2013-03-12 11:14:00,
2013-03-12 07:19:00,40.5,38.6,29.74,NW,315,1.5,1.5,93,0.01,,,0.33,WeatherDisplay:10.37,2013-03-12 11:19:00,
2013-03-12 07:24:00,40.5,38.9,29.74,WNW,292,7.0,7.0,94,0.02,RA,,0.34,WeatherDisplay:10.37,2013-03-12 11:24:00,
2013-03-12 07:29:00,39.4,37.5,29.74,NW,315,7.0,10.4,93,0.02,RA,,0.35,WeatherDisplay:10.37,2013-03-12 11:29:00,
2013-03-12 07:34:00,38.7,36.5,29.74,NNW,338,6.4,6.9,92,0.03,RA,,0.35,WeatherDisplay:10.37,2013-03-12 11:34:00,
2013-03-12 07:39:00,37.9,35.8,29.74,NW,315,3.7,9.2,92,0.03,RA,,0.35,WeatherDisplay:10.37,2013-03-12 11:39:00,
2013-03-12 07:44:00,37.8,35.6,29.75,NW,315,6.1,6.1,92,0.03,CLR,,0.35,WeatherDisplay:10.37,2013-03-12 11:44:00,
2013-03-12 07:49:00,37.4,35.6,29.75,NW,315,5.8,5.8,93,0.03,CLR,,0.35,WeatherDisplay:10.37,2013-03-12 11:49:00,
2013-03-12 07:54:00,37.2,35.4,29.75,NW,315,4.3,5.8,93,0.03,CLR,,0.35,WeatherDisplay:10.37,2013-03-12 11:54:00,
2013-03-12 07:59:00,37.0,35.2,29.75,NW,315,9.3,9.3,93,0.04,RA,,0.37,WeatherDisplay:10.37,2013-03-12 11:59:00,
2013-03-12 08:04:00,36.9,35.0,29.76,NW,315,6.1,6.1,93,0.05,RA,,0.37,WeatherDisplay:10.37,2013-03-12 12:04:00,
2013-03-12 08:09:00,36.9,35.3,29.76,NW,315,4.0,4.6,94,0.04,RA,,0.37,WeatherDisplay:10.37,2013-03-12 12:09:00,
2013-03-12 08:14:00,36.7,35.1,29.76,West,270,5.2,5.2,94,0.04,,,0.37,WeatherDisplay:10.37,2013-03-12 12:14:00,
2013-03-12 08:19:00,36.7,35.1,29.76,NW,315,3.7,4.6,94,0.04,CLR,,0.37,WeatherDisplay:10.37,2013-03-12 12:19:00,
2013-03-12 08:24:00,36.5,34.9,29.77,NW,315,3.1,4.6,94,0.03,CLR,,0.37,WeatherDisplay:10.37,2013-03-12 12:24:00,
2013-03-12 08:29:00,36.3,34.8,29.77,NNW,338,4.3,5.8,94,0.04,RA,,0.39,WeatherDisplay:10.37,2013-03-12 12:29:00,
2013-03-12 08:34:00,36.3,34.8,29.77,NNW,338,1.2,6.9,94,0.03,RA,,0.39,WeatherDisplay:10.37,2013-03-12 12:34:00,
2013-03-12 08:39:00,36.3,34.8,29.77,NW,315,4.3,8.1,94,0.03,CLR,,0.39,WeatherDisplay:10.37,2013-03-12 12:39:00,
2013-03-12 08:44:00,36.3,34.8,29.77,WNW,292,2.4,5.8,94,0.03,CLR,,0.39,WeatherDisplay:10.37,2013-03-12 12:44:00,
2013-03-12 08:49:00,36.3,34.8,29.77,NW,315,3.1,3.5,94,0.03,CLR,,0.39,WeatherDisplay:10.37,2013-03-12 12:49:00,
2013-03-12 08:54:00,36.3,34.8,29.77,WNW,292,4.3,4.6,94,0.04,RA,,0.39,WeatherDisplay:10.37,2013-03-12 12:54:00,
2013-03-12 08:59:00,36.3,34.8,29.77,WNW,292,3.1,4.6,94,0.03,RA,,0.39,WeatherDisplay:10.37,2013-03-12 12:59:00,
2013-03-12 09:04:00,36.3,34.8,29.77,NNW,338,1.5,2.3,94,0.02,,,0.39,WeatherDisplay:10.37,2013-03-12 13:04:00,
2013-03-12 09:09:00,36.3,34.8,29.77,NNW,338,4.6,4.6,94,0.02,CLR,,0.39,WeatherDisplay:10.37,2013-03-12 13:09:00,
2013-03-12 09:14:00,36.3,34.8,29.77,NW,315,3.1,5.8,94,0.02,CLR,,0.39,WeatherDisplay:10.37,2013-03-12 13:14:00,
2013-03-12 09:19:00,36.1,34.6,29.77,WNW,292,1.5,2.3,94,0.02,CLR,,0.39,WeatherDisplay:10.37,2013-03-12 13:19:00,
2013-03-12 09:24:00,36.3,34.8,29.77,NW,315,3.4,3.5,94,0.02,CLR,,0.39,WeatherDisplay:10.37,2013-03-12 13:24:00,
2013-03-12 09:29:00,36.3,34.8,29.77,WSW,248,6.7,6.7,94,0.01,CLR,,0.39,WeatherDisplay:10.37,2013-03-12 13:29:00,
2013-03-12 09:34:00,36.3,34.8,29.77,NW,315,3.1,8.1,94,0.01,CLR,,0.39,WeatherDisplay:10.37,2013-03-12 13:34:00,
2013-03-12 09:39:00,36.3,34.8,29.77,WNW,292,1.8,5.8,94,0.01,CLR,,0.39,WeatherDisplay:10.37,2013-03-12 13:39:00,
2013-03-12 09:44:00,36.3,34.8,29.78,North,0,4.9,4.9,94,0.01,CLR,,0.39,WeatherDisplay:10.37,2013-03-12 13:44:00,
2013-03-12 09:49:00,36.3,34.8,29.78,West,270,7.0,7.0,94,0.01,CLR,,0.39,WeatherDisplay:10.37,2013-03-12 13:49:00,
2013-03-12 09:54:00,36.3,34.8,29.78,WSW,248,2.8,5.8,94,0.00,CLR,,0.39,WeatherDisplay:10.37,2013-03-12 13:54:00,
2013-03-12 09:59:00,36.3,34.8,29.78,West,270,1.8,2.3,94,0.00,CLR,,0.39,WeatherDisplay:10.37,2013-03-12 13:59:00,
2013-03-12 10:04:00,36.5,34.9,29.78,West,270,5.2,6.9,94,0.00,CLR,,0.39,WeatherDisplay:10.37,2013-03-12 14:04:00,
2013-03-12 10:09:00,36.3,34.8,29.78,NNW,338,2.1,5.8,94,0.00,CLR,,0.39,WeatherDisplay:10.37,2013-03-12 14:09:00,
2013-03-12 10:14:00,36.3,34.8,29.78,WSW,248,8.1,8.1,94,0.00,CLR,,0.39,WeatherDisplay:10.37,2013-03-12 14:14:00,
2013-03-12 10:19:00,36.3,34.8,29.78,NW,315,6.1,6.9,94,0.00,CLR,,0.39,WeatherDisplay:10.37,2013-03-12 14:19:00,
2013-03-12 10:24:00,36.5,34.9,29.77,WNW,292,5.8,8.1,94,0.00,CLR,,0.39,WeatherDisplay:10.37,2013-03-12 14:24:00,
2013-03-12 10:29:00,36.9,35.3,29.78,WSW,248,8.7,8.7,94,0.00,CLR,,0.39,WeatherDisplay:10.37,2013-03-12 14:29:00,
2013-03-12 10:34:00,36.9,35.3,29.78,WSW,248,7.8,8.1,94,0.00,CLR,,0.39,WeatherDisplay:10.37,2013-03-12 14:34:00,
2013-03-12 10:39:00,37.0,35.5,29.78,West,270,6.4,8.1,94,0.00,CLR,,0.39,WeatherDisplay:10.37,2013-03-12 14:39:00,
2013-03-12 10:44:00,37.0,35.2,29.77,WSW,248,10.2,10.4,93,0.00,CLR,,0.39,WeatherDisplay:10.37,2013-03-12 14:44:00,
2013-03-12 10:49:00,37.0,35.2,29.78,West,270,8.1,8.1,93,0.00,CLR,,0.39,WeatherDisplay:10.37,2013-03-12 14:49:00,
2013-03-12 10:54:00,37.2,35.4,29.77,WSW,248,12.0,12.0,93,0.00,CLR,,0.39,WeatherDisplay:10.37,2013-03-12 14:54:00,
2013-03-12 10:59:00,37.6,35.5,29.77,WSW,248,8.1,8.1,92,0.00,CLR,,0.39,WeatherDisplay:10.37,2013-03-12 14:59:00,
2013-03-12 11:04:00,37.8,35.6,29.77,WSW,248,4.6,8.1,92,0.00,CLR,,0.39,WeatherDisplay:10.37,2013-03-12 15:04:00,
2013-03-12 11:09:00,37.4,35.0,29.77,WNW,292,6.7,10.4,91,0.00,CLR,,0.39,WeatherDisplay:10.37,2013-03-12 15:09:00,
2013-03-12 11:14:00,37.2,34.8,29.77,SSW,202,5.5,8.1,91,0.00,CLR,,0.39,WeatherDisplay:10.37,2013-03-12 15:14:00,
2013-03-12 11:19:00,37.0,34.7,29.78,NW,315,7.0,7.0,91,0.00,CLR,,0.39,WeatherDisplay:10.37,2013-03-12 15:19:00,
2013-03-12 11:25:00,36.7,34.6,29.77,WNW,292,7.0,9.2,92,0.00,CLR,,0.39,WeatherDisplay:10.37,2013-03-12 15:25:00,
2013-03-12 11:30:00,36.5,34.4,29.78,North,0,5.8,10.4,92,0.00,CLR,,0.39,WeatherDisplay:10.37,2013-03-12 15:30:00,
2013-03-12 11:35:00,36.3,34.2,29.77,NNW,338,7.3,9.2,92,0.00,CLR,,0.39,WeatherDisplay:10.37,2013-03-12 15:35:00,
2013-03-12 11:40:00,36.1,34.0,29.77,NW,315,9.9,10.4,92,0.00,CLR,,0.39,WeatherDisplay:10.37,2013-03-12 15:40:00,
2013-03-12 11:45:00,36.0,33.9,29.77,NW,315,5.2,10.4,92,0.00,CLR,,0.39,WeatherDisplay:10.37,2013-03-12 15:45:00,
2013-03-12 11:50:00,36.0,33.9,29.77,NW,315,6.4,6.9,92,0.00,CLR,,0.39,WeatherDisplay:10.37,2013-03-12 15:50:00,
2013-03-12 11:55:00,36.0,33.9,29.77,WNW,292,5.2,6.9,92,0.00,CLR,,0.39,WeatherDisplay:10.37,2013-03-12 15:55:00,
2013-03-12 12:00:00,36.1,34.0,29.77,West,270,7.0,8.1,92,0.00,CLR,,0.39,WeatherDisplay:10.37,2013-03-12 16:00:00,
2013-03-12 12:05:00,35.8,33.7,29.78,West,270,6.1,9.2,92,0.00,CLR,,0.39,WeatherDisplay:10.37,2013-03-12 16:05:00,
2013-03-12 12:10:00,35.8,33.7,29.78,WNW,292,5.5,5.5,92,0.00,CLR,,0.39,WeatherDisplay:10.37,2013-03-12 16:10:00,
2013-03-12 12:15:00,35.6,33.2,29.77,NNW,338,6.4,6.9,91,0.00,CLR,,0.39,WeatherDisplay:10.37,2013-03-12 16:15:00,
2013-03-12 12:20:00,35.6,32.7,29.77,NW,315,9.0,9.0,89,0.00,CLR,,0.39,WeatherDisplay:10.37,2013-03-12 16:20:00,
2013-03-12 12:25:00,35.8,32.9,29.77,WSW,248,5.5,9.2,89,0.00,CLR,,0.39,WeatherDisplay:10.37,2013-03-12 16:25:00,
2013-03-12 12:30:00,35.8,32.9,29.77,West,270,7.8,7.8,89,0.00,CLR,,0.39,WeatherDisplay:10.37,2013-03-12 16:30:00,
2013-03-12 12:35:00,35.6,32.7,29.78,NW,315,9.9,9.9,89,0.00,CLR,,0.39,WeatherDisplay:10.37,2013-03-12 16:35:00,
2013-03-12 12:40:00,35.6,32.7,29.78,West,270,7.6,16.1,89,0.00,CLR,,0.39,WeatherDisplay:10.37,2013-03-12 16:40:00,
2013-03-12 12:45:00,35.6,32.4,29.78,NW,315,9.9,10.4,88,0.00,CLR,,0.39,WeatherDisplay:10.37,2013-03-12 16:45:00,
2013-03-12 12:50:00,35.6,32.7,29.78,NW,315,4.3,5.8,89,0.00,CLR,,0.39,WeatherDisplay:10.37,2013-03-12 16:50:00,
2013-03-12 12:55:00,35.8,32.6,29.78,West,270,8.4,8.4,88,0.00,CLR,,0.39,WeatherDisplay:10.37,2013-03-12 16:55:00,
2013-03-12 13:00:00,35.8,32.3,29.78,WNW,292,8.4,9.2,87,0.00,CLR,,0.39,WeatherDisplay:10.37,2013-03-12 17:00:00,
2013-03-12 13:05:00,36.0,32.8,29.78,WSW,248,5.2,10.4,88,0.00,CLR,,0.39,WeatherDisplay:10.37,2013-03-12 17:05:00,
2013-03-12 13:10:00,35.8,32.3,29.77,West,270,7.0,7.0,87,0.00,CLR,,0.39,WeatherDisplay:10.37,2013-03-12 17:10:00,
2013-03-12 13:15:00,35.8,32.6,29.77,NW,315,11.1,11.1,88,0.00,CLR,,0.39,WeatherDisplay:10.37,2013-03-12 17:15:00,
2013-03-12 13:20:00,35.8,32.3,29.77,WSW,248,6.4,16.1,87,0.00,CLR,,0.39,WeatherDisplay:10.37,2013-03-12 17:20:00,
2013-03-12 13:25:00,36.0,32.5,29.77,West,270,4.0,8.1,87,0.00,CLR,,0.39,WeatherDisplay:10.37,2013-03-12 17:25:00,
2013-03-12 13:30:00,36.0,32.2,29.77,WNW,292,8.1,8.1,86,0.00,CLR,,0.39,WeatherDisplay:10.37,2013-03-12 17:30:00,
2013-03-12 13:35:00,36.0,32.2,29.77,West,270,9.6,9.6,86,0.00,CLR,,0.39,WeatherDisplay:10.37,2013-03-12 17:35:00,
2013-03-12 13:40:00,36.0,32.2,29.77,WNW,292,4.9,8.1,86,0.00,CLR,,0.39,WeatherDisplay:10.37,2013-03-12 17:40:00,
2013-03-12 13:45:00,35.8,32.0,29.77,WNW,292,4.0,8.1,86,0.00,CLR,,0.39,WeatherDisplay:10.37,2013-03-12 17:45:00,
2013-03-12 13:50:00,35.6,31.5,29.77,NW,315,4.0,9.2,85,0.00,CLR,,0.39,WeatherDisplay:10.37,2013-03-12 17:50:00,
2013-03-12 13:55:00,35.6,31.5,29.77,NW,315,9.0,9.2,85,0.00,CLR,,0.39,WeatherDisplay:10.37,2013-03-12 17:55:00,
2013-03-12 14:00:00,35.2,30.9,29.77,NW,315,9.6,9.6,84,0.00,CLR,,0.39,WeatherDisplay:10.37,2013-03-12 18:00:00,
2013-03-12 14:05:00,35.4,31.4,29.77,NW,315,4.6,6.9,85,0.00,CLR,,0.39,WeatherDisplay:10.37,2013-03-12 18:05:00,
2013-03-12 14:10:00,35.2,31.5,29.77,West,270,6.4,9.2,86,0.00,CLR,,0.39,WeatherDisplay:10.37,2013-03-12 18:10:00,
2013-03-12 14:15:00,35.1,31.3,29.77,West,270,9.3,11.5,86,0.00,CLR,,0.39,WeatherDisplay:10.37,2013-03-12 18:15:00,
2013-03-12 14:20:00,34.7,30.7,29.77,WSW,248,12.3,17.3,85,0.00,CLR,,0.39,WeatherDisplay:10.37,2013-03-12 18:20:00,
2013-03-12 14:25:00,34.5,30.8,29.77,NW,315,6.1,16.1,86,0.00,CLR,,0.39,WeatherDisplay:10.37,2013-03-12 18:25:00,
2013-03-12 14:30:00,34.3,30.6,29.77,NW,315,6.7,12.7,86,0.00,CLR,,0.39,WeatherDisplay:10.37,2013-03-12 18:30:00,
2013-03-12 14:35:00,34.3,30.6,29.78,NNW,338,13.3,13.3,86,0.00,CLR,,0.39,WeatherDisplay:10.37,2013-03-12 18:35:00,
2013-03-12 14:40:00,34.3,30.6,29.78,West,270,6.4,8.1,86,0.00,CLR,,0.39,WeatherDisplay:10.37,2013-03-12 18:40:00,
2013-03-12 14:45:00,34.3,30.6,29.78,WSW,248,5.8,8.1,86,0.00,CLR,,0.39,WeatherDisplay:10.37,2013-03-12 18:45:00,
2013-03-12 14:50:00,34.5,30.8,29.78,WNW,292,7.0,7.0,86,0.00,CLR,,0.39,WeatherDisplay:10.37,2013-03-12 18:50:00,
2013-03-12 14:55:00,34.7,30.9,29.78,WNW,292,2.1,3.5,86,0.00,CLR,,0.39,WeatherDisplay:10.37,2013-03-12 18:55:00,
2013-03-12 15:00:00,35.1,31.0,29.78,West,270,4.9,4.9,85,0.00,CLR,,0.39,WeatherDisplay:10.37,2013-03-12 19:00:00,
2013-03-12 15:05:00,35.1,30.7,29.78,NW,315,4.3,6.9,84,0.00,CLR,,0.39,WeatherDisplay:10.37,2013-03-12 19:05:00,
2013-03-12 15:10:00,35.2,30.9,29.78,WNW,292,4.3,4.6,84,0.00,CLR,,0.39,WeatherDisplay:10.37,2013-03-12 19:10:00,
2013-03-12 15:15:00,35.1,30.7,29.78,WSW,248,8.1,11.5,84,0.00,CLR,,0.39,WeatherDisplay:10.37,2013-03-12 19:15:00,
2013-03-12 15:20:00,34.9,30.5,29.78,WNW,292,9.9,9.9,84,0.00,CLR,,0.39,WeatherDisplay:10.37,2013-03-12 19:20:00,
2013-03-12 15:25:00,34.9,30.5,29.78,West,270,5.5,6.9,84,0.00,CLR,,0.39,WeatherDisplay:10.37,2013-03-12 19:25:00,
2013-03-12 15:30:00,34.9,30.5,29.78,WSW,248,8.4,10.4,84,0.00,CLR,,0.39,WeatherDisplay:10.37,2013-03-12 19:30:00,
2013-03-12 15:35:00,34.9,30.5,29.78,West,270,6.1,10.4,84,0.00,CLR,,0.39,WeatherDisplay:10.37,2013-03-12 19:35:00,
2013-03-12 15:40:00,34.9,30.5,29.78,NNW,338,4.3,10.4,84,0.00,CLR,,0.39,WeatherDisplay:10.37,2013-03-12 19:40:00,
2013-03-12 15:45:00,34.7,30.4,29.78,NW,315,9.9,10.4,84,0.00,CLR,,0.39,WeatherDisplay:10.37,2013-03-12 19:45:00,
2013-03-12 15:50:00,34.7,30.4,29.78,WSW,248,12.0,12.0,84,0.00,CLR,,0.39,WeatherDisplay:10.37,2013-03-12 19:50:00,
2013-03-12 15:55:00,34.7,30.4,29.79,NW,315,4.9,9.2,84,0.00,CLR,,0.39,WeatherDisplay:10.37,2013-03-12 19:55:00,
2013-03-12 16:00:00,34.9,30.5,29.79,WSW,248,9.3,9.3,84,0.00,CLR,,0.39,WeatherDisplay:10.37,2013-03-12 20:00:00,
2013-03-12 16:05:00,35.1,31.0,29.79,WNW,292,4.3,6.9,85,0.00,CLR,,0.39,WeatherDisplay:10.37,2013-03-12 20:05:00,
2013-03-12 16:10:00,35.1,30.7,29.79,WSW,248,9.0,13.8,84,0.00,CLR,,0.39,WeatherDisplay:10.37,2013-03-12 20:10:00,
2013-03-12 16:15:00,34.9,30.5,29.79,NW,315,9.6,12.7,84,0.00,CLR,,0.39,WeatherDisplay:10.37,2013-03-12 20:15:00,
2013-03-12 16:20:00,34.9,30.5,29.79,NW,315,5.5,10.4,84,0.00,CLR,,0.39,WeatherDisplay:10.37,2013-03-12 20:20:00,
2013-03-12 16:25:00,34.9,30.5,29.79,North,0,10.5,11.5,84,0.00,CLR,,0.39,WeatherDisplay:10.37,2013-03-12 20:25:00,
2013-03-12 16:30:00,34.9,30.2,29.79,West,270,14.8,14.8,83,0.00,CLR,,0.39,WeatherDisplay:10.37,2013-03-12 20:30:00,
2013-03-12 16:35:00,34.9,30.5,29.79,WNW,292,4.3,9.2,84,0.00,CLR,,0.39,WeatherDisplay:10.37,2013-03-12 20:35:00,
2013-03-12 16:40:00,34.9,30.2,29.79,WSW,248,10.2,10.4,83,0.00,CLR,,0.39,WeatherDisplay:10.37,2013-03-12 20:40:00,
2013-03-12 16:45:00,34.9,30.2,29.79,West,270,7.3,8.1,83,0.00,CLR,,0.39,WeatherDisplay:10.37,2013-03-12 20:45:00,
2013-03-12 16:50:00,34.9,30.2,29.79,WSW,248,7.8,8.1,83,0.00,CLR,,0.39,WeatherDisplay:10.37,2013-03-12 20:50:00,
2013-03-12 16:55:00,34.9,30.2,29.79,West,270,5.5,6.9,83,0.00,CLR,,0.39,WeatherDisplay:10.37,2013-03-12 20:55:00,
2013-03-12 17:00:00,34.7,30.1,29.79,WNW,292,6.1,6.1,83,0.00,CLR,,0.39,WeatherDisplay:10.37,2013-03-12 21:00:00,
2013-03-12 17:05:00,34.7,30.4,29.79,WNW,292,9.0,9.0,84,0.00,CLR,,0.39,WeatherDisplay:10.37,2013-03-12 21:05:00,
2013-03-12 17:10:00,34.3,30.0,29.79,NW,315,11.7,15.0,84,0.00,CLR,,0.39,WeatherDisplay:10.37,2013-03-12 21:10:00,
2013-03-12 17:15:00,34.2,29.8,29.79,West,270,6.4,8.1,84,0.00,CLR,,0.39,WeatherDisplay:10.37,2013-03-12 21:15:00,
2013-03-12 17:20:00,34.2,30.1,29.80,WNW,292,7.3,9.2,85,0.00,CLR,,0.39,WeatherDisplay:10.37,2013-03-12 21:20:00,
2013-03-12 17:25:00,34.2,29.8,29.80,WNW,292,1.5,5.8,84,0.00,CLR,,0.39,WeatherDisplay:10.37,2013-03-12 21:25:00,
2013-03-12 17:30:00,34.2,29.2,29.80,NW,315,9.6,11.5,82,0.00,CLR,,0.39,WeatherDisplay:10.37,2013-03-12 21:30:00,
2013-03-12 17:35:00,34.2,28.9,29.80,West,270,4.3,11.5,81,0.00,CLR,,0.39,WeatherDisplay:10.37,2013-03-12 21:35:00,
2013-03-12 17:40:00,34.2,29.2,29.80,WSW,248,12.0,12.0,82,0.00,CLR,,0.39,WeatherDisplay:10.37,2013-03-12 21:40:00,
2013-03-12 17:45:00,34.0,29.1,29.80,NNW,338,8.4,8.4,82,0.00,CLR,,0.39,WeatherDisplay:10.37,2013-03-12 21:45:00,
2013-03-12 17:50:00,34.0,29.4,29.80,WNW,292,12.0,12.0,83,0.00,CLR,,0.39,WeatherDisplay:10.37,2013-03-12 21:50:00,
2013-03-12 17:55:00,33.8,28.9,29.81,WNW,292,6.7,6.9,82,0.00,CLR,,0.39,WeatherDisplay:10.37,2013-03-12 21:55:00,
2013-03-12 18:00:00,33.8,28.9,29.81,NW,315,5.5,5.8,82,0.00,CLR,,0.39,WeatherDisplay:10.37,2013-03-12 22:00:00,
2013-03-12 18:05:00,33.8,28.6,29.82,NNW,338,9.0,13.8,81,0.00,CLR,,0.39,WeatherDisplay:10.37,2013-03-12 22:05:00,
2013-03-12 18:10:00,33.8,28.6,29.81,NNW,338,11.1,11.1,81,0.00,CLR,,0.39,WeatherDisplay:10.37,2013-03-12 22:10:00,
2013-03-12 18:15:00,33.8,28.6,29.82,NW,315,7.8,9.2,81,0.00,CLR,,0.39,WeatherDisplay:10.37,2013-03-12 22:15:00,
2013-03-12 18:20:00,33.6,28.4,29.82,North,0,9.0,12.7,81,0.00,CLR,,0.39,WeatherDisplay:10.37,2013-03-12 22:20:00,
2013-03-12 18:25:00,33.6,28.4,29.82,West,270,6.1,8.1,81,0.00,CLR,,0.39,WeatherDisplay:10.37,2013-03-12 22:25:00,
2013-03-12 18:30:00,33.6,28.4,29.82,NNW,338,5.5,6.9,81,0.00,CLR,,0.39,WeatherDisplay:10.37,2013-03-12 22:30:00,
2013-03-12 18:35:00,33.4,28.2,29.82,West,270,5.2,12.7,81,0.00,CLR,,0.39,WeatherDisplay:10.37,2013-03-12 22:35:00,
2013-03-12 18:40:00,33.4,28.2,29.82,West,270,4.3,8.1,81,0.00,CLR,,0.39,WeatherDisplay:10.37,2013-03-12 22:40:00,
2013-03-12 18:45:00,33.4,28.2,29.82,NW,315,11.1,11.5,81,0.00,CLR,,0.39,WeatherDisplay:10.37,2013-03-12 22:45:00,
2013-03-12 18:50:00,33.4,27.9,29.82,NNW,338,9.9,10.4,80,0.00,CLR,,0.39,WeatherDisplay:10.37,2013-03-12 22:50:00,
2013-03-12 18:55:00,33.3,27.8,29.82,NW,315,9.0,10.4,80,0.00,CLR,,0.39,WeatherDisplay:10.37,2013-03-12 22:55:00,
2013-03-12 19:00:00,33.3,27.8,29.82,West,270,7.6,8.1,80,0.00,CLR,,0.39,WeatherDisplay:10.37,2013-03-12 23:00:00,
2013-03-12 19:05:00,33.3,27.8,29.83,WNW,292,5.5,6.9,80,0.00,CLR,,0.39,WeatherDisplay:10.37,2013-03-12 23:05:00,
2013-03-12 19:10:00,33.3,27.8,29.83,WNW,292,7.6,8.1,80,0.00,CLR,,0.39,WeatherDisplay:10.37,2013-03-12 23:10:00,
2013-03-12 19:15:00,33.3,27.8,29.83,WNW,292,4.9,5.8,80,0.00,CLR,,0.39,WeatherDisplay:10.37,2013-03-12 23:15:00,
2013-03-12 19:20:00,33.3,27.5,29.83,WNW,292,5.5,9.2,79,0.00,CLR,,0.39,WeatherDisplay:10.37,2013-03-12 23:20:00,
2013-03-12 19:25:00,33.3,27.5,29.84,WNW,292,4.3,8.1,79,0.00,CLR,,0.39,WeatherDisplay:10.37,2013-03-12 23:25:00,
2013-03-12 19:30:00,33.3,27.8,29.84,WNW,292,3.4,4.6,80,0.00,CLR,,0.39,WeatherDisplay:10.37,2013-03-12 23:30:00,
2013-03-12 19:35:00,33.3,27.5,29.84,WNW,292,6.4,6.9,79,0.00,CLR,,0.39,WeatherDisplay:10.37,2013-03-12 23:35:00,
2013-03-12 19:40:00,33.3,27.8,29.84,WNW,292,3.1,3.5,80,0.00,CLR,,0.39,WeatherDisplay:10.37,2013-03-12 23:40:00,
2013-03-12 19:45:00,33.3,27.8,29.84,WNW,292,3.4,9.2,80,0.00,CLR,,0.39,WeatherDisplay:10.37,2013-03-12 23:45:00,
2013-03-12 23:07:00,32.7,27.5,29.88,WNW,292,3.1,3.5,81,0.00,CLR,,0.39,WeatherDisplay:10.37,2013-03-13 03:07:00,
2013-03-12 23:12:00,32.7,27.2,29.88,WNW,292,6.7,9.2,80,0.00,CLR,,0.39,WeatherDisplay:10.37,2013-03-13 03:12:00,
2013-03-12 23:17:00,32.7,26.9,29.88,WNW,292,4.0,8.1,79,0.00,CLR,,0.39,WeatherDisplay:10.37,2013-03-13 03:17:00,
2013-03-12 23:22:00,32.7,26.6,29.88,WNW,292,6.7,10.4,78,0.00,CLR,,0.39,WeatherDisplay:10.37,2013-03-13 03:22:00,
2013-03-12 23:28:00,32.7,26.9,29.88,WNW,292,3.4,5.8,79,0.00,CLR,,0.39,WeatherDisplay:10.37,2013-03-13 03:28:00,
2013-03-12 23:33:00,32.7,27.2,29.88,WNW,292,11.1,11.5,80,0.00,CLR,,0.39,WeatherDisplay:10.37,2013-03-13 03:33:00,
2013-03-12 23:38:00,32.5,27.1,29.88,WNW,292,4.3,6.9,80,0.00,CLR,,0.39,WeatherDisplay:10.37,2013-03-13 03:38:00,
2013-03-12 23:43:00,32.5,27.1,29.89,WNW,292,7.8,12.7,80,0.00,CLR,,0.39,WeatherDisplay:10.37,2013-03-13 03:43:00,
2013-03-12 23:48:00,32.5,27.1,29.88,WNW,292,4.6,8.1,80,0.00,CLR,,0.39,WeatherDisplay:10.37,2013-03-13 03:48:00,
2013-03-12 23:53:00,32.4,26.9,29.88,WNW,292,9.3,9.3,80,0.00,CLR,,0.39,WeatherDisplay:10.37,2013-03-13 03:53:00,
2013-03-12 23:58:00,32.4,26.6,29.88,WNW,292,5.2,9.2,79,0.00,CLR,,0.39,WeatherDisplay:10.37,2013-03-13 03:58:00,